Time,TemperatureF,DewpointF,PressureIn,WindDirection,WindDirectionDegrees,WindSpeedMPH,WindSpeedGustMPH,Humidity,HourlyPrecipIn,Conditions,Clouds,dailyrainin,SolarRadiationWatts/m^2,SoftwareType,DateUTC
2013-03-27 00:05:00,48.6,43.7,29.96,East,79,1.0,6.0,83,0.00,,,0.00,0,Wunderground v.1.15,2013-03-27 07:05:00,
2013-03-27 00:10:00,49.2,43.6,29.96,East,79,1.0,6.0,81,0.00,,,0.00,0,Wunderground v.1.15,2013-03-27 07:10:00,
2013-03-27 00:15:00,49.2,43.6,29.97,East,79,1.0,6.0,81,0.00,,,0.00,0,Wunderground v.1.15,2013-03-27 07:15:00,
2013-03-27 00:20:00,49.0,43.4,29.97,East,79,0.0,6.0,81,0.00,,,0.00,0,Wunderground v.1.15,2013-03-27 07:20:00,
2013-03-27 00:30:00,48.2,43.0,29.96,East,79,0.0,6.0,82,0.00,,,0.00,0,Wunderground v.1.15,2013-03-27 07:30:00,
2013-03-27 00:35:00,48.0,42.8,29.96,East,79,0.0,6.0,82,0.00,,,0.00,0,Wunderground v.1.15,2013-03-27 07:35:00,
2013-03-27 00:40:00,47.9,43.0,29.96,East,79,1.0,1.0,83,0.00,,,0.00,0,Wunderground v.1.15,2013-03-27 07:40:00,
2013-03-27 00:45:00,47.8,42.9,29.97,East,79,1.0,6.0,83,0.00,,,0.00,0,Wunderground v.1.15,2013-03-27 07:45:00,
2013-03-27 00:50:00,47.6,42.7,29.97,East,79,0.0,6.0,83,0.00,,,0.00,0,Wunderground v.1.15,2013-03-27 07:50:00,
2013-03-27 01:00:00,47.8,43.2,29.97,East,101,1.0,6.0,84,0.00,,,0.00,0,Wunderground v.1.15,2013-03-27 08:00:00,
2013-03-27 01:10:00,47.7,42.8,29.97,ESE,109,1.0,6.0,83,0.00,,,0.00,0,Wunderground v.1.15,2013-03-27 08:10:00,
2013-03-27 01:15:00,47.0,42.1,29.97,ESE,109,1.0,6.0,83,0.00,,,0.00,0,Wunderground v.1.15,2013-03-27 08:15:00,
2013-03-27 01:20:00,46.4,41.8,29.97,ESE,109,0.0,6.0,84,0.00,,,0.00,0,Wunderground v.1.15,2013-03-27 08:20:00,
2013-03-27 01:25:00,46.4,42.1,29.97,ESE,109,0.0,6.0,85,0.00,,,0.00,0,Wunderground v.1.15,2013-03-27 08:25:00,
2013-03-27 01:35:00,45.5,41.3,29.97,ESE,109,0.0,6.0,85,0.00,,,0.00,0,Wunderground v.1.15,2013-03-27 08:35:00,
2013-03-27 01:40:00,44.9,41.0,29.97,ESE,109,0.0,6.0,86,0.00,,,0.00,0,Wunderground v.1.15,2013-03-27 08:40:00,
2013-03-27 01:45:00,44.7,40.5,29.96,ESE,109,0.0,6.0,85,0.00,,,0.00,0,Wunderground v.1.15,2013-03-27 08:45:00,
2013-03-27 01:50:00,44.5,40.6,29.97,ESE,109,0.0,6.0,86,0.00,,,0.00,0,Wunderground v.1.15,2013-03-27 08:50:00,
2013-03-27 01:55:00,45.4,41.8,29.97,ESE,109,0.0,6.0,87,0.00,,,0.00,0,Wunderground v.1.15,2013-03-27 08:55:00,
2013-03-27 02:05:00,45.7,41.8,29.97,ESE,109,0.0,6.0,86,0.00,,,0.00,0,Wunderground v.1.15,2013-03-27 09:05:00,
2013-03-27 02:10:00,45.2,41.3,29.97,ESE,109,0.0,6.0,86,0.00,,,0.00,0,Wunderground v.1.15,2013-03-27 09:10:00,
2013-03-27 02:15:00,44.7,40.8,29.96,ESE,109,0.0,6.0,86,0.00,,,0.00,0,Wunderground v.1.15,2013-03-27 09:15:00,
2013-03-27 02:20:00,44.6,40.7,29.96,ESE,109,0.0,6.0,86,0.00,,,0.00,0,Wunderground v.1.15,2013-03-27 09:20:00,
2013-03-27 02:30:00,44.3,40.4,29.96,ESE,109,0.0,6.0,86,0.00,,,0.00,0,Wunderground v.1.15,2013-03-27 09:30:00,
2013-03-27 02:35:00,44.3,40.4,29.96,ESE,109,0.0,6.0,86,0.00,,,0.00,0,Wunderground v.1.15,2013-03-27 09:35:00,
2013-03-27 02:40:00,44.5,40.9,29.95,ESE,109,0.0,6.0,87,0.00,,,0.00,0,Wunderground v.1.15,2013-03-27 09:40:00,
2013-03-27 02:45:00,44.3,40.7,29.96,ESE,109,0.0,6.0,87,0.00,,,0.00,0,Wunderground v.1.15,2013-03-27 09:45:00,
2013-03-27 02:55:00,44.5,40.9,29.95,ESE,109,0.0,6.0,87,0.00,,,0.00,0,Wunderground v.1.15,2013-03-27 09:55:00,
2013-03-27 03:00:00,44.5,40.9,29.95,ESE,109,0.0,6.0,87,0.00,,,0.00,0,Wunderground v.1.15,2013-03-27 10:00:00,
2013-03-27 03:05:00,44.2,40.6,29.95,ESE,109,0.0,6.0,87,0.00,,,0.00,0,Wunderground v.1.15,2013-03-27 10:05:00,
2013-03-27 03:10:00,44.4,40.8,29.95,ESE,109,0.0,6.0,87,0.00,,,0.00,0,Wunderground v.1.15,2013-03-27 10:10:00,
2013-03-27 03:20:00,45.4,42.1,29.95,ESE,109,0.0,6.0,88,0.00,,,0.00,0,Wunderground v.1.15,2013-03-27 10:20:00,
2013-03-27 03:25:00,45.4,41.8,29.95,ESE,109,0.0,6.0,87,0.00,,,0.00,0,Wunderground v.1.15,2013-03-27 10:25:00,
2013-03-27 03:30:00,45.2,41.6,29.95,ESE,109,0.0,6.0,87,0.00,,,0.00,0,Wunderground v.1.15,2013-03-27 10:30:00,
2013-03-27 03:35:00,45.2,41.6,29.95,ESE,109,0.0,6.0,87,0.00,,,0.00,0,Wunderground v.1.15,2013-03-27 10:35:00,
2013-03-27 03:40:00,45.5,42.2,29.95,ENE,65,1.0,6.0,88,0.00,,,0.00,0,Wunderground v.1.15,2013-03-27 10:40:00,
2013-03-27 03:50:00,46.6,43.2,29.95,ENE,65,1.0,1.0,88,0.00,,,0.00,0,Wunderground v.1.15,2013-03-27 10:50:00,
2013-03-27 03:55:00,47.2,43.5,29.95,ENE,65,0.0,6.0,87,0.00,,,0.00,0,Wunderground v.1.15,2013-03-27 10:55:00,
2013-03-27 04:00:00,47.7,44.0,29.95,ENE,65,0.0,6.0,87,0.00,,,0.00,0,Wunderground v.1.15,2013-03-27 11:00:00,
2013-03-27 04:10:00,48.5,44.5,29.95,NE,37,0.0,6.0,86,0.00,,,0.00,0,Wunderground v.1.15,2013-03-27 11:10:00,
2013-03-27 04:15:00,48.8,44.8,29.95,NNE,24,0.0,6.0,86,0.00,,,0.00,0,Wunderground v.1.15,2013-03-27 11:15:00,
2013-03-27 04:20:00,49.3,45.0,29.95,NNE,24,0.0,6.0,85,0.00,,,0.00,0,Wunderground v.1.15,2013-03-27 11:20:00,
2013-03-27 04:25:00,49.8,45.2,29.95,NNE,24,0.0,6.0,84,0.00,,,0.00,0,Wunderground v.1.15,2013-03-27 11:25:00,
2013-03-27 04:35:00,49.9,44.6,29.95,NNE,28,0.0,6.0,82,0.00,,,0.00,0,Wunderground v.1.15,2013-03-27 11:35:00,
2013-03-27 04:40:00,49.9,44.6,29.95,NNE,28,0.0,6.0,82,0.00,,,0.00,0,Wunderground v.1.15,2013-03-27 11:40:00,
2013-03-27 04:45:00,50.1,44.8,29.95,NNE,28,0.0,6.0,82,0.00,,,0.00,0,Wunderground v.1.15,2013-03-27 11:45:00,
2013-03-27 04:55:00,50.3,45.0,29.95,NE,44,1.0,6.0,82,0.00,,,0.00,0,Wunderground v.1.15,2013-03-27 11:55:00,
2013-03-27 05:00:00,50.2,44.9,29.95,NE,44,1.0,1.0,82,0.00,,,0.00,0,Wunderground v.1.15,2013-03-27 12:00:00,
2013-03-27 05:05:00,50.1,44.8,29.95,NE,44,0.0,6.0,82,0.00,,,0.00,0,Wunderground v.1.15,2013-03-27 12:05:00,
2013-03-27 05:10:00,50.2,44.9,29.95,NE,44,0.0,6.0,82,0.00,,,0.00,0,Wunderground v.1.15,2013-03-27 12:10:00,
2013-03-27 05:20:00,49.7,44.4,29.95,NE,44,0.0,6.0,82,0.00,,,0.00,0,Wunderground v.1.15,2013-03-27 12:20:00,
2013-03-27 05:25:00,49.6,44.6,29.95,NE,44,0.0,6.0,83,0.00,,,0.00,0,Wunderground v.1.15,2013-03-27 12:25:00,
2013-03-27 05:30:00,49.9,44.9,29.95,NE,47,0.0,6.0,83,0.00,,,0.00,0,Wunderground v.1.15,2013-03-27 12:30:00,
2013-03-27 05:35:00,50.0,45.0,29.95,NE,47,1.0,6.0,83,0.00,,,0.00,0,Wunderground v.1.15,2013-03-27 12:35:00,
2013-03-27 05:45:00,49.9,44.6,29.95,NE,49,1.0,6.0,82,0.00,,,0.00,0,Wunderground v.1.15,2013-03-27 12:45:00,
2013-03-27 05:50:00,49.6,44.6,29.95,NE,49,0.0,6.0,83,0.00,,,0.00,0,Wunderground v.1.15,2013-03-27 12:50:00,
2013-03-27 05:55:00,49.1,44.2,29.95,NE,49,0.0,6.0,83,0.00,,,0.00,0,Wunderground v.1.15,2013-03-27 12:55:00,
2013-03-27 06:00:00,48.7,44.1,29.95,NE,49,0.0,6.0,84,0.00,,,0.00,0,Wunderground v.1.15,2013-03-27 13:00:00,
2013-03-27 06:10:00,48.5,44.2,29.95,NE,49,0.0,6.0,85,0.00,,,0.00,0,Wunderground v.1.15,2013-03-27 13:10:00,
2013-03-27 06:15:00,48.1,43.8,29.95,NE,49,0.0,6.0,85,0.00,,,0.00,0,Wunderground v.1.15,2013-03-27 13:15:00,
2013-03-27 06:20:00,48.0,43.7,29.96,NE,49,0.0,6.0,85,0.00,,,0.00,0,Wunderground v.1.15,2013-03-27 13:20:00,
2013-03-27 06:25:00,47.4,43.1,29.96,NE,49,0.0,6.0,85,0.00,,,0.00,0,Wunderground v.1.15,2013-03-27 13:25:00,
2013-03-27 06:35:00,46.9,42.9,29.96,NE,52,0.0,6.0,86,0.00,,,0.00,0,Wunderground v.1.15,2013-03-27 13:35:00,
2013-03-27 06:40:00,46.4,42.4,29.96,NE,52,0.0,6.0,86,0.00,,,0.00,0,Wunderground v.1.15,2013-03-27 13:40:00,
2013-03-27 06:45:00,46.1,42.1,29.96,NE,52,0.0,6.0,86,0.00,,,0.00,0,Wunderground v.1.15,2013-03-27 13:45:00,
2013-03-27 06:50:00,45.7,41.8,29.96,NE,52,0.0,6.0,86,0.00,,,0.00,0,Wunderground v.1.15,2013-03-27 13:50:00,
2013-03-27 07:00:00,45.4,41.8,29.96,NE,52,0.0,6.0,87,0.00,,,0.00,0,Wunderground v.1.15,2013-03-27 14:00:00,
2013-03-27 07:05:00,45.4,41.8,29.96,NE,52,0.0,6.0,87,0.00,,,0.00,0,Wunderground v.1.15,2013-03-27 14:05:00,
2013-03-27 07:10:00,45.5,41.9,29.96,NE,52,0.0,6.0,87,0.00,,,0.00,7,Wunderground v.1.15,2013-03-27 14:10:00,
2013-03-27 07:20:00,45.8,42.4,29.97,NE,52,0.0,6.0,88,0.00,,,0.00,16,Wunderground v.1.15,2013-03-27 14:20:00,
2013-03-27 07:30:00,45.9,42.5,29.97,NE,52,0.0,6.0,88,0.00,,,0.00,26,Wunderground v.1.15,2013-03-27 14:30:00,
2013-03-27 07:35:00,46.0,42.6,29.97,NE,52,0.0,6.0,88,0.00,,,0.00,32,Wunderground v.1.15,2013-03-27 14:35:00,
2013-03-27 07:40:00,46.1,42.7,29.98,NE,52,0.0,6.0,88,0.00,,,0.00,39,Wunderground v.1.15,2013-03-27 14:40:00,
2013-03-27 07:50:00,46.6,43.2,29.98,NE,52,0.0,6.0,88,0.00,,,0.00,49,Wunderground v.1.15,2013-03-27 14:50:00,
2013-03-27 07:55:00,47.9,44.5,29.98,NE,52,1.0,6.0,88,0.00,,,0.00,56,Wunderground v.1.15,2013-03-27 14:55:00,
2013-03-27 08:00:00,49.2,45.8,29.98,NE,52,1.0,1.0,88,0.00,,,0.00,60,Wunderground v.1.15,2013-03-27 15:00:00,
2013-03-27 08:10:00,49.2,45.5,29.98,NE,52,0.0,6.0,87,0.00,,,0.00,65,Wunderground v.1.15,2013-03-27 15:10:00,
2013-03-27 08:15:00,49.4,45.4,29.98,NE,52,0.0,6.0,86,0.00,,,0.00,65,Wunderground v.1.15,2013-03-27 15:15:00,
2013-03-27 08:20:00,49.5,45.5,29.98,NE,52,0.0,6.0,86,0.00,,,0.00,69,Wunderground v.1.15,2013-03-27 15:20:00,
2013-03-27 08:30:00,50.0,46.0,29.98,NE,52,0.0,6.0,86,0.00,,,0.00,86,Wunderground v.1.15,2013-03-27 15:30:00,
2013-03-27 08:35:00,50.3,46.3,29.98,NE,52,0.0,6.0,86,0.00,,,0.00,91,Wunderground v.1.15,2013-03-27 15:35:00,
2013-03-27 08:40:00,50.7,46.7,29.98,NE,52,0.0,6.0,86,0.00,,,0.00,107,Wunderground v.1.15,2013-03-27 15:40:00,
2013-03-27 08:45:00,51.2,46.8,29.98,NE,52,0.0,6.0,85,0.00,,,0.00,127,Wunderground v.1.15,2013-03-27 15:45:00,
2013-03-27 08:55:00,51.9,47.5,29.98,NE,52,0.0,6.0,85,0.00,,,0.00,123,Wunderground v.1.15,2013-03-27 15:55:00,
2013-03-27 09:00:00,52.5,47.8,29.98,NE,52,0.0,6.0,84,0.00,,,0.00,234,Wunderground v.1.15,2013-03-27 16:00:00,
2013-03-27 09:10:00,54.6,49.5,29.98,NE,52,0.0,6.0,83,0.00,,,0.00,336,Wunderground v.1.15,2013-03-27 16:10:00,
2013-03-27 09:20:00,57.4,50.9,29.98,NW,320,1.0,6.0,79,0.00,,,0.00,410,Wunderground v.1.15,2013-03-27 16:20:00,
2013-03-27 09:25:00,58.9,51.0,29.99,West,277,2.0,6.0,75,0.00,,,0.00,304,Wunderground v.1.15,2013-03-27 16:25:00,
2013-03-27 09:30:00,59.2,51.3,29.99,NNW,336,3.0,6.0,75,0.00,,,0.00,483,Wunderground v.1.15,2013-03-27 16:30:00,
2013-03-27 09:40:00,60.2,51.9,29.99,South,172,3.0,3.0,74,0.00,,,0.00,503,Wunderground v.1.15,2013-03-27 16:40:00,
2013-03-27 09:45:00,60.3,50.5,29.99,WSW,257,2.0,6.0,70,0.00,,,0.00,404,Wunderground v.1.15,2013-03-27 16:45:00,
2013-03-27 09:50:00,60.9,51.4,29.98,WSW,256,2.0,6.0,71,0.00,,,0.00,599,Wunderground v.1.15,2013-03-27 16:50:00,
2013-03-27 10:00:00,61.9,52.4,29.99,WSW,254,3.0,3.0,71,0.00,,,0.00,566,Wunderground v.1.15,2013-03-27 17:00:00,
2013-03-27 10:05:00,61.6,51.7,29.99,WNW,284,3.0,7.0,70,0.00,,,0.00,624,Wunderground v.1.15,2013-03-27 17:05:00,
2013-03-27 10:10:00,60.8,51.3,29.99,WNW,287,4.0,4.0,71,0.00,,,0.00,387,Wunderground v.1.15,2013-03-27 17:10:00,
2013-03-27 10:20:00,61.4,52.3,29.99,NNE,28,2.0,6.0,72,0.00,,,0.00,784,Wunderground v.1.15,2013-03-27 17:20:00,
2013-03-27 10:25:00,61.5,52.0,29.99,WSW,258,2.0,6.0,71,0.00,,,0.00,359,Wunderground v.1.15,2013-03-27 17:25:00,
2013-03-27 10:30:00,61.2,50.6,29.99,SE,134,1.0,6.0,68,0.00,,,0.00,489,Wunderground v.1.15,2013-03-27 17:30:00,
2013-03-27 10:35:00,61.2,50.9,29.99,SSW,194,1.0,6.0,69,0.00,,,0.00,329,Wunderground v.1.15,2013-03-27 17:35:00,
2013-03-27 10:45:00,60.5,50.7,29.99,WSW,246,1.0,6.0,70,0.00,,,0.00,278,Wunderground v.1.15,2013-03-27 17:45:00,
2013-03-27 10:50:00,60.2,50.4,29.99,WNW,294,1.0,1.0,70,0.00,,,0.00,464,Wunderground v.1.15,2013-03-27 17:50:00,
2013-03-27 11:00:00,62.0,52.1,29.99,SSE,161,2.0,2.0,70,0.00,,,0.00,431,Wunderground v.1.15,2013-03-27 18:00:00,
2013-03-27 11:05:00,63.5,51.9,29.99,WNW,298,2.0,3.0,66,0.00,,,0.00,752,Wunderground v.1.15,2013-03-27 18:05:00,
2013-03-27 11:15:00,64.1,51.7,29.99,West,261,2.0,5.0,64,0.00,,,0.00,749,Wunderground v.1.15,2013-03-27 18:15:00,
2013-03-27 11:20:00,64.4,52.4,29.99,West,267,3.0,6.0,65,0.00,,,0.00,765,Wunderground v.1.15,2013-03-27 18:20:00,
2013-03-27 11:25:00,64.9,52.0,29.99,West,260,3.0,7.0,63,0.00,,,0.00,752,Wunderground v.1.15,2013-03-27 18:25:00,
2013-03-27 11:35:00,65.1,52.2,29.99,West,273,3.0,6.0,63,0.00,,,0.00,756,Wunderground v.1.15,2013-03-27 18:35:00,
2013-03-27 11:40:00,64.7,50.9,29.99,WNW,302,2.0,6.0,61,0.00,,,0.00,455,Wunderground v.1.15,2013-03-27 18:40:00,
2013-03-27 11:45:00,65.1,52.2,29.99,SW,219,3.0,6.0,63,0.00,,,0.00,283,Wunderground v.1.15,2013-03-27 18:45:00,
2013-03-27 11:50:00,63.2,51.2,29.99,SSW,201,3.0,6.0,65,0.00,,,0.00,297,Wunderground v.1.15,2013-03-27 18:50:00,
2013-03-27 12:00:00,62.7,50.8,29.99,West,267,2.0,6.0,65,0.00,,,0.00,216,Wunderground v.1.15,2013-03-27 19:00:00,
2013-03-27 12:05:00,63.4,51.4,29.99,WNW,283,2.0,6.0,65,0.00,,,0.00,250,Wunderground v.1.15,2013-03-27 19:05:00,
2013-03-27 12:10:00,63.6,52.0,29.99,WNW,284,3.0,6.0,66,0.00,,,0.00,250,Wunderground v.1.15,2013-03-27 19:10:00,
2013-03-27 12:15:00,64.7,52.2,29.99,WSW,244,3.0,6.0,64,0.00,,,0.00,673,Wunderground v.1.15,2013-03-27 19:15:00,
2013-03-27 12:25:00,65.7,52.3,29.99,West,259,3.0,7.0,62,0.00,,,0.00,888,Wunderground v.1.15,2013-03-27 19:25:00,
2013-03-27 12:30:00,66.9,53.5,29.99,WSW,238,3.0,3.0,62,0.00,,,0.00,881,Wunderground v.1.15,2013-03-27 19:30:00,
2013-03-27 12:35:00,64.3,51.0,29.99,WNW,288,3.0,7.0,62,0.00,,,0.00,251,Wunderground v.1.15,2013-03-27 19:35:00,
2013-03-27 12:45:00,63.8,51.4,29.99,NW,317,2.0,6.0,64,0.00,,,0.00,279,Wunderground v.1.15,2013-03-27 19:45:00,
2013-03-27 12:50:00,63.6,52.4,29.99,West,266,2.0,2.0,67,0.00,,,0.00,367,Wunderground v.1.15,2013-03-27 19:50:00,
2013-03-27 12:55:00,63.3,51.7,29.99,WSW,242,3.0,3.0,66,0.00,,,0.00,313,Wunderground v.1.15,2013-03-27 19:55:00,
2013-03-27 13:00:00,62.9,51.8,29.99,WNW,285,3.0,3.0,67,0.00,,,0.00,269,Wunderground v.1.15,2013-03-27 20:00:00,
2013-03-27 13:10:00,62.5,51.4,29.99,WNW,282,1.0,6.0,67,0.00,,,0.00,271,Wunderground v.1.15,2013-03-27 20:10:00,
2013-03-27 13:15:00,62.5,51.4,29.99,WNW,300,2.0,6.0,67,0.00,,,0.00,279,Wunderground v.1.15,2013-03-27 20:15:00,
2013-03-27 13:20:00,62.6,52.3,29.99,WSW,257,2.0,6.0,69,0.00,,,0.00,290,Wunderground v.1.15,2013-03-27 20:20:00,
2013-03-27 13:25:00,62.8,51.7,29.99,West,268,2.0,6.0,67,0.00,,,0.00,332,Wunderground v.1.15,2013-03-27 20:25:00,
2013-03-27 13:31:00,63.7,53.3,29.99,WSW,248,2.0,3.0,69,0.00,,,0.00,436,Wunderground v.1.15,2013-03-27 20:31:00,
2013-03-27 13:40:00,63.8,52.6,29.98,NW,304,3.0,3.0,67,0.00,,,0.00,374,Wunderground v.1.15,2013-03-27 20:40:00,
2013-03-27 13:45:00,63.1,51.1,29.98,West,271,3.0,3.0,65,0.00,,,0.00,315,Wunderground v.1.15,2013-03-27 20:45:00,
2013-03-27 13:50:00,63.1,52.0,29.98,West,276,3.0,3.0,67,0.00,,,0.00,478,Wunderground v.1.15,2013-03-27 20:50:00,
2013-03-27 13:55:00,64.5,52.9,29.98,WNW,293,3.0,3.0,66,0.00,,,0.00,244,Wunderground v.1.15,2013-03-27 20:55:00,
2013-03-27 14:00:00,62.9,52.2,29.98,SW,223,3.0,3.0,68,0.00,,,0.00,162,Wunderground v.1.15,2013-03-27 21:00:00,
2013-03-27 14:10:00,61.4,51.5,29.99,NNW,337,3.0,3.0,70,0.00,,,0.00,221,Wunderground v.1.15,2013-03-27 21:10:00,
2013-03-27 14:15:00,61.1,52.0,29.99,SW,232,3.0,3.0,72,0.00,,,0.00,274,Wunderground v.1.15,2013-03-27 21:15:00,
2013-03-27 14:20:00,61.3,52.2,29.99,WSW,253,3.0,7.0,72,0.00,,,0.00,213,Wunderground v.1.15,2013-03-27 21:20:00,
2013-03-27 14:25:00,60.4,51.7,29.99,WNW,302,4.0,7.0,73,0.00,,,0.00,176,Wunderground v.1.15,2013-03-27 21:25:00,
2013-03-27 14:35:00,59.9,51.6,29.99,NW,311,4.0,8.0,74,0.00,,,0.00,230,Wunderground v.1.15,2013-03-27 21:35:00,
2013-03-27 14:40:00,60.5,51.8,29.98,NW,318,4.0,4.0,73,0.00,,,0.00,336,Wunderground v.1.15,2013-03-27 21:40:00,
2013-03-27 14:45:00,61.2,52.5,29.98,WNW,298,3.0,8.0,73,0.00,,,0.00,265,Wunderground v.1.15,2013-03-27 21:45:00,
2013-03-27 14:55:00,60.7,51.6,29.98,SW,234,3.0,8.0,72,0.00,,,0.00,274,Wunderground v.1.15,2013-03-27 21:55:00,
2013-03-27 15:00:00,61.3,52.6,29.98,WNW,286,2.0,8.0,73,0.00,,,0.00,309,Wunderground v.1.15,2013-03-27 22:00:00,
2013-03-27 15:05:00,61.7,53.0,29.98,WNW,286,3.0,8.0,73,0.00,,,0.00,304,Wunderground v.1.15,2013-03-27 22:05:00,
2013-03-27 15:15:00,61.9,52.4,29.98,WNW,291,2.0,8.0,71,0.00,,,0.00,225,Wunderground v.1.15,2013-03-27 22:15:00,
2013-03-27 15:20:00,61.8,51.5,29.98,West,260,3.0,8.0,69,0.00,,,0.00,278,Wunderground v.1.15,2013-03-27 22:20:00,
2013-03-27 15:25:00,61.9,52.4,29.98,West,264,3.0,8.0,71,0.00,,,0.00,278,Wunderground v.1.15,2013-03-27 22:25:00,
2013-03-27 15:30:00,62.2,53.1,29.98,West,275,2.0,8.0,72,0.00,,,0.00,216,Wunderground v.1.15,2013-03-27 22:30:00,
2013-03-27 15:40:00,62.3,52.8,29.98,WNW,298,3.0,8.0,71,0.00,,,0.00,239,Wunderground v.1.15,2013-03-27 22:40:00,
2013-03-27 15:45:00,62.8,52.9,29.98,NW,306,3.0,8.0,70,0.00,,,0.00,359,Wunderground v.1.15,2013-03-27 22:45:00,
2013-03-27 15:50:00,64.0,52.4,29.98,WSW,242,3.0,3.0,66,0.00,,,0.00,388,Wunderground v.1.15,2013-03-27 22:50:00,
2013-03-27 15:55:00,63.7,52.5,29.98,NW,309,4.0,5.0,67,0.00,,,0.00,332,Wunderground v.1.15,2013-03-27 22:55:00,
2013-03-27 16:00:00,63.3,52.6,29.98,SW,236,3.0,8.0,68,0.00,,,0.00,338,Wunderground v.1.15,2013-03-27 23:00:00,
2013-03-27 16:10:00,63.0,52.3,29.98,WSW,252,3.0,3.0,68,0.00,,,0.00,350,Wunderground v.1.15,2013-03-27 23:10:00,
2013-03-27 16:15:00,63.0,52.3,29.98,SW,234,3.0,8.0,68,0.00,,,0.00,489,Wunderground v.1.15,2013-03-27 23:15:00,
2013-03-27 16:20:00,62.8,52.5,29.98,West,265,3.0,3.0,69,0.00,,,0.00,297,Wunderground v.1.15,2013-03-27 23:20:00,
2013-03-27 16:25:00,62.9,52.2,29.98,West,265,3.0,8.0,68,0.00,,,0.00,206,Wunderground v.1.15,2013-03-27 23:25:00,
2013-03-27 16:35:00,62.6,52.3,29.98,SSW,196,3.0,8.0,69,0.00,,,0.00,323,Wunderground v.1.15,2013-03-27 23:35:00,
2013-03-27 16:40:00,63.9,53.9,29.98,WSW,252,3.0,8.0,70,0.00,,,0.00,582,Wunderground v.1.15,2013-03-27 23:40:00,
2013-03-27 16:45:00,64.1,52.5,29.98,West,272,3.0,8.0,66,0.00,,,0.00,631,Wunderground v.1.15,2013-03-27 23:45:00,
2013-03-27 16:55:00,63.6,52.4,29.98,NW,313,3.0,8.0,67,0.00,,,0.00,563,Wunderground v.1.15,2013-03-27 23:55:00,
2013-03-27 17:00:00,63.2,52.5,29.98,NW,311,4.0,4.0,68,0.00,,,0.00,492,Wunderground v.1.15,2013-03-28 00:00:00,
2013-03-27 17:05:00,62.5,51.8,29.98,WNW,296,4.0,5.0,68,0.00,,,0.00,434,Wunderground v.1.15,2013-03-28 00:05:00,
2013-03-27 17:10:00,62.7,52.8,29.98,NW,309,3.0,3.0,70,0.00,,,0.00,432,Wunderground v.1.15,2013-03-28 00:10:00,
2013-03-27 17:15:00,62.7,52.4,29.98,NW,315,2.0,8.0,69,0.00,,,0.00,390,Wunderground v.1.15,2013-03-28 00:15:00,
2013-03-27 17:25:00,62.0,52.1,29.98,WNW,290,2.0,3.0,70,0.00,,,0.00,243,Wunderground v.1.15,2013-03-28 00:25:00,
2013-03-27 17:30:00,61.7,52.2,29.98,WSW,240,2.0,8.0,71,0.00,,,0.00,339,Wunderground v.1.15,2013-03-28 00:30:00,
2013-03-27 17:35:00,62.3,52.4,29.98,West,274,2.0,8.0,70,0.00,,,0.00,278,Wunderground v.1.15,2013-03-28 00:35:00,
2013-03-27 17:40:00,62.2,52.3,29.98,West,270,3.0,3.0,70,0.00,,,0.00,155,Wunderground v.1.15,2013-03-28 00:40:00,
2013-03-27 17:50:00,61.3,52.2,29.98,WNW,288,2.0,8.0,72,0.00,,,0.00,144,Wunderground v.1.15,2013-03-28 00:50:00,
2013-03-27 17:55:00,60.9,52.2,29.98,WSW,251,2.0,8.0,73,0.00,,,0.00,156,Wunderground v.1.15,2013-03-28 00:55:00,
2013-03-27 18:00:00,60.7,52.0,29.98,West,262,2.0,8.0,73,0.00,,,0.00,127,Wunderground v.1.15,2013-03-28 01:00:00,
2013-03-27 18:10:00,60.6,51.5,29.98,SW,225,3.0,3.0,72,0.00,,,0.00,121,Wunderground v.1.15,2013-03-28 01:10:00,
2013-03-27 18:15:00,60.2,51.5,29.98,WSW,240,2.0,8.0,73,0.00,,,0.00,130,Wunderground v.1.15,2013-03-28 01:15:00,
2013-03-27 18:20:00,59.8,51.5,29.98,WSW,244,1.0,1.0,74,0.00,,,0.00,51,Wunderground v.1.15,2013-03-28 01:20:00,
2013-03-27 18:25:00,59.6,51.3,29.98,SSW,211,1.0,8.0,74,0.00,,,0.00,46,Wunderground v.1.15,2013-03-28 01:25:00,
2013-03-27 18:30:00,59.3,51.0,29.98,WNW,282,1.0,8.0,74,0.00,,,0.00,40,Wunderground v.1.15,2013-03-28 01:30:00,
2013-03-27 18:40:00,58.8,51.2,29.98,WNW,300,2.0,2.0,76,0.00,,,0.00,40,Wunderground v.1.15,2013-03-28 01:40:00,
2013-03-27 18:45:00,58.4,51.2,29.98,WNW,301,1.0,8.0,77,0.00,,,0.00,47,Wunderground v.1.15,2013-03-28 01:45:00,
2013-03-27 18:50:00,58.2,51.4,29.98,WNW,291,1.0,1.0,78,0.00,,,0.00,44,Wunderground v.1.15,2013-03-28 01:50:00,
2013-03-27 18:55:00,58.1,51.3,29.98,WNW,291,1.0,8.0,78,0.00,,,0.00,39,Wunderground v.1.15,2013-03-28 01:55:00,
2013-03-27 19:05:00,57.8,51.0,29.98,WNW,292,0.0,8.0,78,0.00,,,0.00,25,Wunderground v.1.15,2013-03-28 02:05:00,
2013-03-27 19:10:00,57.8,51.0,29.98,West,277,1.0,1.0,78,0.00,,,0.00,21,Wunderground v.1.15,2013-03-28 02:10:00,
2013-03-27 19:15:00,57.5,50.7,29.98,West,277,1.0,8.0,78,0.00,,,0.00,14,Wunderground v.1.15,2013-03-28 02:15:00,
2013-03-27 19:25:00,56.6,50.5,29.99,South,186,0.0,8.0,80,0.00,,,0.00,5,Wunderground v.1.15,2013-03-28 02:25:00,
2013-03-27 19:30:00,56.1,50.0,29.98,WNW,294,1.0,1.0,80,0.00,,,0.00,0,Wunderground v.1.15,2013-03-28 02:30:00,
2013-03-27 19:35:00,55.5,49.4,29.98,WNW,294,1.0,8.0,80,0.00,,,0.00,0,Wunderground v.1.15,2013-03-28 02:35:00,
2013-03-27 19:40:00,54.9,49.2,29.98,WNW,294,0.0,8.0,81,0.00,,,0.00,0,Wunderground v.1.15,2013-03-28 02:40:00,
2013-03-27 19:45:00,54.2,48.5,29.98,WSW,252,0.0,8.0,81,0.00,,,0.00,0,Wunderground v.1.15,2013-03-28 02:45:00,
2013-03-27 19:55:00,53.3,48.3,29.99,East,96,1.0,8.0,83,0.00,,,0.00,0,Wunderground v.1.15,2013-03-28 02:55:00,
2013-03-27 20:00:00,53.0,48.3,29.99,East,84,1.0,1.0,84,0.00,,,0.00,0,Wunderground v.1.15,2013-03-28 03:00:00,
2013-03-27 20:05:00,52.3,47.6,29.99,East,84,1.0,8.0,84,0.00,,,0.00,0,Wunderground v.1.15,2013-03-28 03:05:00,
2013-03-27 20:10:00,51.8,47.4,29.99,East,84,0.0,8.0,85,0.00,,,0.00,0,Wunderground v.1.15,2013-03-28 03:10:00,
2013-03-27 20:20:00,50.6,46.3,29.99,East,84,0.0,8.0,85,0.00,,,0.00,0,Wunderground v.1.15,2013-03-28 03:20:00,
2013-03-27 20:25:00,50.4,46.4,29.99,East,84,0.0,8.0,86,0.00,,,0.00,0,Wunderground v.1.15,2013-03-28 03:25:00,
2013-03-27 20:30:00,50.2,46.2,29.99,East,84,0.0,8.0,86,0.00,,,0.00,0,Wunderground v.1.15,2013-03-28 03:30:00,
2013-03-27 20:40:00,49.6,45.6,29.99,ENE,69,0.0,8.0,86,0.00,,,0.00,0,Wunderground v.1.15,2013-03-28 03:40:00,
2013-03-27 20:45:00,49.9,46.2,29.99,ENE,65,1.0,8.0,87,0.00,,,0.00,0,Wunderground v.1.15,2013-03-28 03:45:00,
2013-03-27 20:50:00,50.1,46.4,30.00,ENE,65,1.0,8.0,87,0.00,,,0.00,0,Wunderground v.1.15,2013-03-28 03:50:00,
2013-03-27 20:55:00,50.3,46.6,30.00,ENE,65,1.0,8.0,87,0.00,,,0.00,0,Wunderground v.1.15,2013-03-28 03:55:00,
2013-03-27 21:00:00,50.5,46.8,30.00,ENE,65,1.0,1.0,87,0.00,,,0.00,0,Wunderground v.1.15,2013-03-28 04:00:00,
2013-03-27 21:05:00,50.5,46.8,30.00,ENE,65,1.0,8.0,87,0.00,,,0.00,0,Wunderground v.1.15,2013-03-28 04:05:00,
2013-03-27 21:10:00,50.2,46.2,30.00,ENE,65,0.0,8.0,86,0.00,,,0.00,0,Wunderground v.1.15,2013-03-28 04:10:00,
2013-03-27 21:15:00,49.8,46.1,30.00,ENE,65,0.0,8.0,87,0.00,,,0.00,0,Wunderground v.1.15,2013-03-28 04:15:00,
2013-03-27 21:20:00,50.0,46.3,30.00,ENE,65,1.0,1.0,87,0.00,,,0.00,0,Wunderground v.1.15,2013-03-28 04:20:00,
2013-03-27 21:25:00,49.6,45.9,30.00,ENE,65,1.0,8.0,87,0.00,,,0.00,0,Wunderground v.1.15,2013-03-28 04:25:00,
2013-03-27 21:30:00,49.4,45.7,30.01,ENE,65,0.0,8.0,87,0.00,,,0.00,0,Wunderground v.1.15,2013-03-28 04:30:00,
2013-03-27 21:35:00,48.7,44.7,30.01,ENE,65,0.0,8.0,86,0.00,,,0.00,0,Wunderground v.1.15,2013-03-28 04:35:00,
2013-03-27 21:40:00,48.7,45.0,30.01,ENE,65,0.0,8.0,87,0.00,,,0.00,0,Wunderground v.1.15,2013-03-28 04:40:00,
2013-03-27 21:45:00,48.9,45.5,30.01,ENE,65,0.0,8.0,88,0.00,,,0.00,0,Wunderground v.1.15,2013-03-28 04:45:00,
2013-03-27 21:50:00,48.6,44.9,30.01,ENE,65,0.0,8.0,87,0.00,,,0.00,0,Wunderground v.1.15,2013-03-28 04:50:00,
2013-03-27 22:00:00,47.9,44.2,30.02,ENE,65,0.0,8.0,87,0.00,,,0.00,0,Wunderground v.1.15,2013-03-28 05:00:00,
2013-03-27 22:05:00,47.8,44.4,30.02,ENE,65,0.0,8.0,88,0.00,,,0.00,0,Wunderground v.1.15,2013-03-28 05:05:00,
2013-03-27 22:10:00,47.6,44.2,30.02,ENE,65,0.0,8.0,88,0.00,,,0.00,0,Wunderground v.1.15,2013-03-28 05:10:00,
2013-03-27 22:15:00,47.5,44.1,30.03,ENE,65,0.0,8.0,88,0.00,,,0.00,0,Wunderground v.1.15,2013-03-28 05:15:00,
2013-03-27 22:25:00,47.7,44.3,30.02,ENE,65,0.0,8.0,88,0.00,,,0.00,0,Wunderground v.1.15,2013-03-28 05:25:00,
2013-03-27 22:30:00,48.0,44.9,30.02,ENE,65,0.0,8.0,89,0.00,,,0.00,0,Wunderground v.1.15,2013-03-28 05:30:00,
2013-03-27 22:40:00,47.9,44.8,30.03,ENE,65,0.0,8.0,89,0.00,,,0.00,0,Wunderground v.1.15,2013-03-28 05:40:00,
2013-03-27 22:45:00,48.0,44.6,30.03,ENE,65,0.0,8.0,88,0.00,,,0.00,0,Wunderground v.1.15,2013-03-28 05:45:00,
2013-03-27 22:50:00,47.9,44.5,30.03,ENE,65,0.0,8.0,88,0.00,,,0.00,0,Wunderground v.1.15,2013-03-28 05:50:00,
2013-03-27 23:00:00,48.0,44.6,30.03,ENE,65,0.0,8.0,88,0.00,,,0.00,0,Wunderground v.1.15,2013-03-28 06:00:00,
2013-03-27 23:05:00,48.2,44.8,30.03,ENE,65,0.0,8.0,88,0.00,,,0.00,0,Wunderground v.1.15,2013-03-28 06:05:00,
2013-03-27 23:10:00,48.1,44.7,30.03,ENE,65,0.0,8.0,88,0.00,,,0.00,0,Wunderground v.1.15,2013-03-28 06:10:00,
2013-03-27 23:15:00,47.8,44.4,30.03,ENE,65,0.0,8.0,88,0.00,,,0.00,0,Wunderground v.1.15,2013-03-28 06:15:00,
2013-03-27 23:25:00,47.2,43.8,30.03,ENE,65,0.0,8.0,88,0.00,,,0.00,0,Wunderground v.1.15,2013-03-28 06:25:00,
2013-03-27 23:30:00,47.7,44.6,30.03,ENE,65,0.0,8.0,89,0.00,,,0.00,0,Wunderground v.1.15,2013-03-28 06:30:00,
2013-03-27 23:35:00,48.2,45.1,30.03,WNW,288,1.0,8.0,89,0.00,,,0.00,0,Wunderground v.1.15,2013-03-28 06:35:00,
2013-03-27 23:40:00,48.1,44.7,30.03,WNW,287,1.0,1.0,88,0.00,,,0.00,0,Wunderground v.1.15,2013-03-28 06:40:00,
2013-03-27 23:45:00,47.9,44.5,30.03,WNW,288,0.0,8.0,88,0.00,,,0.00,0,Wunderground v.1.15,2013-03-28 06:45:00,
2013-03-27 23:55:00,48.3,45.2,30.03,WNW,288,0.0,8.0,89,0.00,,,0.00,0,Wunderground v.1.15,2013-03-28 06:55:00,